This is the latest recevied weather packets stored in our database for station/object HB9SZU-6. If no packets are shown the sender has not sent any weather packets the latest 10 day(s).
| Time | Temp. | Humidity | Pressure | Rain* | Wind** | Luminosity | Snow |
|---|---|---|---|---|---|---|---|
| 1778167672 | 23.33° C | 51% | 1016.7 hPa | 0 mm | - | - | - |
| 1778166773 | 23.89° C | 52% | 1016.7 hPa | 0 mm | - | - | - |
| 1778165872 | 23.33° C | 52% | 1016.9 hPa | 0 mm | - | - | - |
| 1778164973 | 23.89° C | 53% | 1016.9 hPa | 0 mm | - | - | - |
| 1778164072 | 23.89° C | 53% | 1017.1 hPa | 0 mm | - | - | - |
| 1778163173 | 23.33° C | 53% | 1017.3 hPa | 0 mm | - | - | - |
| 1778162273 | 23.89° C | 53% | 1017.2 hPa | 0 mm | - | - | - |
| 1778161373 | 23.89° C | 53% | 1017.5 hPa | 0 mm | - | - | - |
| 1778160473 | 22.22° C | 52% | 1017.6 hPa | 0 mm | - | - | - |
| 1778159573 | 22.22° C | 52% | 1017.8 hPa | 0 mm | - | - | - |
| 1778158673 | 21.67° C | 53% | 1017.5 hPa | 0 mm | - | - | - |
| 1778157773 | 21.67° C | 53% | 1017.6 hPa | 0 mm | - | - | - |
| 1778156872 | 21.67° C | 53% | 1017.6 hPa | 0 mm | - | - | - |
| 1778155973 | 21.11° C | 56% | 1017.6 hPa | 0 mm | - | - | - |
| 1778155073 | 20.56° C | 58% | 1017.8 hPa | 0 mm | - | - | - |
| 1778154173 | 20° C | 59% | 1017.9 hPa | 0 mm | - | - | - |
| 1778153273 | 20° C | 61% | 1018 hPa | 0 mm | - | - | - |
| 1778152373 | 19.44° C | 64% | 1018.1 hPa | 0 mm | - | - | - |
| 1778151473 | 18.89° C | 68% | 1018.3 hPa | 0 mm | - | - | - |
| 1778150573 | 18.33° C | 70% | 1018.4 hPa | 0 mm | - | - | - |
| 1778149673 | 17.78° C | 72% | 1018.7 hPa | 0 mm | - | - | - |
| 1778148773 | 17.22° C | 76% | 1018.6 hPa | 0 mm | - | - | - |
| 1778147873 | 16.11° C | 79% | 1018.8 hPa | 0 mm | - | - | - |
| 1778146973 | 15.56° C | 79% | 1018.7 hPa | 0 mm | - | - | - |
| 1778146073 | 14.44° C | 81% | 1018.7 hPa | 0 mm | - | - | - |
* Rain latest hour (hover to see other rain measurements)
** Current wind speed in m/s (hover to see current wind gust speed)